When you browse on this site, cookies collect data to enhance your experience and personalize the content and advertising you see.
Visit our Privacy Policy to learn more. By continuing to use the site, you agree to this use of cookies and data.
  • In Schweiz
  • Länderverzeichnis
  • Für 7 Tage
  • Wassertemperatur
  • Wetterkarte
  • Widgets
  • user-avatar
    Anmelden

    Stündliche Wetter Kandahar

    Heute, 23 Januar, Donnerstag

    Zeit Temperatur Niederschläge Wind Luftdruck Luftfeuchtigkeit
    00:00 +4°C° 0 mm 4 m/S 680 mmHg 61%
    01:00 +4°C° 0 mm 4 m/S 679 mmHg 61%
    02:00 +3°C° 0 mm 4 m/S 679 mmHg 60%
    03:00 +3°C° 0 mm 4 m/S 679 mmHg 59%
    04:00 +3°C° 0 mm 3 m/S 679 mmHg 59%
    05:00 +3°C° 0 mm 4 m/S 679 mmHg 59%
    06:00 +3°C° 0 mm 4 m/S 679 mmHg 58%
    07:00 +1°C° 0 mm 4 m/S 679 mmHg 57%
    08:00 +4°C° 0 mm 4 m/S 679 mmHg 53%
    09:00 +5°C° 0 mm 4 m/S 679 mmHg 48%
    10:00 +6°C° 0 mm 4 m/S 680 mmHg 43%
    11:00 +8°C° 0 mm 4 m/S 679 mmHg 42%
    12:00 +10°C° 0 mm 4 m/S 679 mmHg 42%
    13:00 +11°C° 0 mm 4 m/S 678 mmHg 41%
    14:00 +11°C° 0 mm 4 m/S 678 mmHg 42%
    15:00 +11°C° 0 mm 4 m/S 678 mmHg 44%
    16:00 +11°C° 0 mm 4 m/S 677 mmHg 45%
    17:00 +10°C° 0 mm 4 m/S 677 mmHg 49%
    18:00 +8°C° 0 mm 4 m/S 677 mmHg 52%
    19:00 +7°C° 0 mm 4 m/S 678 mmHg 56%
    20:00 +6°C° 0 mm 4 m/S 677 mmHg 56%
    21:00 +6°C° 0 mm 4 m/S 677 mmHg 57%
    22:00 +5°C° 0 mm 4 m/S 677 mmHg 58%
    23:00 +5°C° 0 mm 5 m/S 676 mmHg 58%

    Morgen, 24 Januar, Freitag

    Zeit Temperatur Niederschläge Wind Luftdruck Luftfeuchtigkeit
    00:00 +3°C° 0 mm 5 m/S 676 mmHg 58%
    01:00 +3°C° 0 mm 5 m/S 675 mmHg 58%
    02:00 +3°C° 0.1 mm 5 m/S 675 mmHg 58%
    03:00 +3°C° 0.1 mm 5 m/S 674 mmHg 59%
    04:00 +3°C° 0.1 mm 5 m/S 674 mmHg 60%
    05:00 +3°C° 0.6 mm 5 m/S 674 mmHg 65%
    06:00 +3°C° 0.6 mm 5 m/S 674 mmHg 71%
    07:00 +2°C° 0.6 mm 5 m/S 674 mmHg 76%
    08:00 +3°C° 0.5 mm 5 m/S 675 mmHg 78%
    09:00 +3°C° 0.5 mm 5 m/S 675 mmHg 81%
    10:00 +3°C° 0.5 mm 5 m/S 675 mmHg 83%
    11:00 +3°C° 1.7 mm 5 m/S 675 mmHg 85%
    12:00 +4°C° 1.7 mm 4 m/S 674 mmHg 87%
    13:00 +4°C° 1.7 mm 3 m/S 674 mmHg 89%
    14:00 +4°C° 1.5 mm 4 m/S 674 mmHg 89%
    15:00 +4°C° 1.5 mm 4 m/S 674 mmHg 90%
    16:00 +4°C° 1.5 mm 4 m/S 673 mmHg 90%
    17:00 +5°C° 0.6 mm 4 m/S 674 mmHg 89%
    18:00 +5°C° 0.6 mm 3 m/S 674 mmHg 88%
    19:00 +6°C° 0.6 mm 2 m/S 674 mmHg 88%
    20:00 +5°C° 1.2 mm 3 m/S 674 mmHg 89%
    21:00 +5°C° 1.2 mm 3 m/S 675 mmHg 90%
    22:00 +5°C° 1.2 mm 3 m/S 675 mmHg 90%
    23:00 +5°C° 0.2 mm 3 m/S 675 mmHg 90%

    übermorgen, 25 Januar, Samstag

    Zeit Temperatur Niederschläge Wind Luftdruck Luftfeuchtigkeit
    00:00 +6°C° 0.2 mm 2 m/S 674 mmHg 90%
    01:00 +5°C° 0.2 mm 2 m/S 674 mmHg 89%
    02:00 +5°C° 0 mm 2 m/S 674 mmHg 88%
    03:00 +5°C° 0 mm 2 m/S 674 mmHg 86%
    04:00 +5°C° 0 mm 2 m/S 674 mmHg 85%
    05:00 +5°C° 0 mm 2 m/S 674 mmHg 84%
    06:00 +5°C° 0 mm 2 m/S 675 mmHg 82%
    07:00 +4°C° 0 mm 3 m/S 675 mmHg 81%
    08:00 +6°C° 0 mm 2 m/S 675 mmHg 74%
    09:00 +8°C° 0 mm 2 m/S 676 mmHg 68%
    10:00 +9°C° 0 mm 2 m/S 676 mmHg 61%
    11:00 +10°C° 0 mm 2 m/S 676 mmHg 59%
    12:00 +12°C° 0 mm 2 m/S 675 mmHg 56%
    13:00 +13°C° 0 mm 1 m/S 675 mmHg 53%
    14:00 +13°C° 0 mm 1 m/S 675 mmHg 51%
    15:00 +13°C° 0 mm 1 m/S 675 mmHg 48%
    16:00 +13°C° 0 mm 1 m/S 675 mmHg 46%
    17:00 +12°C° 0 mm 1 m/S 675 mmHg 53%
    18:00 +11°C° 0 mm 1 m/S 675 mmHg 60%
    19:00 +8°C° 0 mm 2 m/S 675 mmHg 66%
    20:00 +8°C° 0 mm 2 m/S 675 mmHg 67%
    21:00 +7°C° 0 mm 3 m/S 675 mmHg 67%
    22:00 +7°C° 0 mm 3 m/S 676 mmHg 67%
    23:00 +5°C° 0 mm 3 m/S 675 mmHg 66%

    26 Januar, Sonntag

    Zeit Temperatur Niederschläge Wind Luftdruck Luftfeuchtigkeit
    00:00 +4°C° 0 mm 3 m/S 675 mmHg 64%
    01:00 +4°C° 0 mm 3 m/S 674 mmHg 62%
    02:00 +3°C° 0 mm 4 m/S 674 mmHg 61%
    03:00 +3°C° 0 mm 4 m/S 674 mmHg 60%
    04:00 +3°C° 0 mm 4 m/S 674 mmHg 59%
    05:00 +3°C° 0 mm 4 m/S 674 mmHg 58%
    06:00 +1°C° 0 mm 4 m/S 674 mmHg 57%
    07:00 +2°C° 0 mm 3 m/S 674 mmHg 56%
    08:00 +4°C° 0 mm 4 m/S 675 mmHg 51%
    09:00 +5°C° 0 mm 4 m/S 675 mmHg 46%
    10:00 +6°C° 0 mm 4 m/S 675 mmHg 42%
    11:00 +7°C° 0 mm 4 m/S 675 mmHg 41%
    12:00 +10°C° 0 mm 4 m/S 674 mmHg 40%
    13:00 +11°C° 0 mm 4 m/S 673 mmHg 39%
    14:00 +11°C° 0 mm 4 m/S 673 mmHg 40%
    15:00 +10°C° 0 mm 4 m/S 673 mmHg 41%
    16:00 +10°C° 0 mm 4 m/S 673 mmHg 42%
    17:00 +8°C° 0 mm 4 m/S 673 mmHg 46%
    18:00 +8°C° 0 mm 3 m/S 673 mmHg 50%
    19:00 +7°C° 0 mm 3 m/S 673 mmHg 53%
    20:00 +7°C° 0 mm 3 m/S 673 mmHg 54%
    21:00 +5°C° 0 mm 3 m/S 673 mmHg 55%
    22:00 +5°C° 0 mm 3 m/S 673 mmHg 56%
    23:00 +5°C° 0 mm 2 m/S 672 mmHg 56%

    27 Januar, Montag

    Zeit Temperatur Niederschläge Wind Luftdruck Luftfeuchtigkeit
    00:00 +5°C° 0 mm 2 m/S 672 mmHg 56%
    01:00 +5°C° 0 mm 2 m/S 672 mmHg 56%
    02:00 +4°C° 0 mm 2 m/S 672 mmHg 56%
    03:00 +4°C° 0 mm 2 m/S 672 mmHg 55%
    04:00 +3°C° 0 mm 2 m/S 672 mmHg 55%
    05:00 +3°C° 0 mm 2 m/S 672 mmHg 55%
    06:00 +3°C° 0 mm 2 m/S 673 mmHg 54%
    07:00 +3°C° 0 mm 2 m/S 673 mmHg 54%
    08:00 +4°C° 0 mm 2 m/S 673 mmHg 49%
    09:00 +5°C° 0 mm 2 m/S 674 mmHg 43%
    10:00 +6°C° 0 mm 2 m/S 674 mmHg 38%
    11:00 +7°C° 0 mm 2 m/S 674 mmHg 36%
    12:00 +9°C° 0 mm 1 m/S 673 mmHg 35%
    13:00 +10°C° 0 mm 1 m/S 673 mmHg 33%
    14:00 +10°C° 0 mm 1 m/S 673 mmHg 34%
    15:00 +11°C° 0 mm 1 m/S 673 mmHg 36%
    16:00 +10°C° 0 mm 2 m/S 673 mmHg 37%
    17:00 +10°C° 0 mm 1 m/S 673 mmHg 41%
    18:00 +9°C° 0 mm 1 m/S 673 mmHg 46%
    19:00 +8°C° 0 mm 1 m/S 674 mmHg 50%
    20:00 +7°C° 0 mm 1 m/S 674 mmHg 50%
    21:00 +7°C° 0 mm 1 m/S 674 mmHg 49%
    22:00 +5°C° 0 mm 2 m/S 674 mmHg 49%
    23:00 +4°C° 0 mm 2 m/S 674 mmHg 49%

    28 Januar, Dienstag

    Zeit Temperatur Niederschläge Wind Luftdruck Luftfeuchtigkeit
    00:00 +4°C° 0 mm 2 m/S 674 mmHg 49%
    01:00 +3°C° 0 mm 2 m/S 674 mmHg 49%
    02:00 +3°C° 0 mm 2 m/S 674 mmHg 49%
    03:00 +2°C° 0 mm 2 m/S 674 mmHg 49%
    04:00 +2°C° 0 mm 2 m/S 674 mmHg 49%
    05:00 +2°C° 0 mm 2 m/S 674 mmHg 49%
    06:00 +2°C° 0 mm 2 m/S 674 mmHg 49%
    07:00 +2°C° 0 mm 2 m/S 675 mmHg 50%
    08:00 +3°C° 0 mm 2 m/S 675 mmHg 45%
    09:00 +4°C° 0 mm 2 m/S 675 mmHg 40%
    10:00 +5°C° 0 mm 2 m/S 676 mmHg 34%
    11:00 +7°C° 0 mm 1 m/S 675 mmHg 33%
    12:00 +8°C° 0 mm 1 m/S 675 mmHg 32%
    13:00 +9°C° 0 mm 1 m/S 674 mmHg 30%
    14:00 +9°C° 0 mm 1 m/S 674 mmHg 31%
    15:00 +8°C° 0 mm 2 m/S 674 mmHg 31%
    16:00 +8°C° 0 mm 2 m/S 674 mmHg 32%
    17:00 +7°C° 0 mm 2 m/S 674 mmHg 36%
    18:00 +7°C° 0 mm 2 m/S 674 mmHg 40%
    19:00 +6°C° 0 mm 2 m/S 675 mmHg 44%
    20:00 +5°C° 0 mm 2 m/S 675 mmHg 46%
    21:00 +5°C° 0 mm 2 m/S 675 mmHg 48%
    22:00 +4°C° 0 mm 2 m/S 675 mmHg 50%
    23:00 +4°C° 0 mm 2 m/S 675 mmHg 51%
    Mehr zeigen